Tracking 30314 objects as of 20-Apr-2025
HD Live streaming from Space Station
objects crossing your sky now

ATLAS 5 CENTAUR R/B

Track ATLAS 5 CENTAUR R/B now!


NORAD ID: 51851
Int'l Code: 2022-021B
Perigee: 8,145.2 km
Apogee: 35,057.1 km
Inclination: 7.6 °
Period: 776.0 minutes
Semi major axis: 27972 km
RCS: Unknown
Launch date: March 1, 2022
Source: United States (US)
Launch site: AIR FORCE EASTERN TEST RANGE (AFETR)

Note: This is a ROCKET BODY
Your satellite tracking list
Your tracking list is empty




NASA's NSSDC Master Catalog

Two Line Element Set (TLE):
1 51851U 22021B   25109.44871981 -.00000055  00000-0  00000-0 0  9997
2 51851   7.6174 224.6972 4810487  33.4046 349.2647  1.85572830 21244
Source of the keplerian elements: AFSPC